Location: City of Moscow
(46.7306°N, 116.9989°W)
Time: 03:33:14
(UTC+00:00)

USA 234 - Pass Details

Date: 12 March 2026
Orbit: 1102 x 1106 km, 123.0° (Epoch: 4 January)

Event Time Altitude Azimuth Distance (km) Brightness Sun altitude
Exits shadow 02:25:33 - 72° (ENE) 3,313 5.2 -7.2°
Reaches altitude 10° 02:26:32 10° 69° (ENE) 2,967 5.0 -7.4°
Maximum altitude 02:32:24 37° 5° (N) 1,657 4.2 -8.4°
Drops below altitude 10° 02:38:16 10° 301° (WNW) 2,970 6.7 -9.4°
Sets 02:40:56 0° 294° (WNW) 3,929 7.8 -9.8°
